STARLINK-5876 (56321 NORAD) Tracking and Keplerian Element Data

This shows tracking and keplerian element data for the satellite.

Feedback or suggestion? Click here.




ElementValue
Catalog56321
NameSTARLINK-5876
Epoch Orbit179
Epoch Day126.91667824
Epoch Year2023
RAAN126.3812
Inclination97.6631
Eccentricity0.0001579
Argument of Perigee93.9847
Mean Anonmoly121.6225
Mean Motion15.68146812
Decay Rate-0.00797736
L11 56321U 23058E 23126.91667824 -.00797736 00000+0 -78979-2 0 9994
L22 56321 97.6631 126.3812 0001579 93.9847 121.6225 15.68146812 1794



Live tracking and technical data element details for STARLINK-5876 (NORAD 56321). STARLINK-5876 can be tracked NOW for your location showing map with azimuth and elevation plus other details from your city location.







IsCatalogInMostPopularTable: catalog: 56321, numindb: 4
Update: records affected: 1



GetName: 56321 STARLINK-5876

Hit Count: updated at: Wed, 07 Jun 2023 10:17:51 GMT